sat.trackr.live / text

‹ back to catalog

STARLINK-11447 [DTC]

NORAD 62418 · 2024-249K

PAYLOAD ACTIVE UNKNOWN

§ Identity

Operator
Country
US
Launch date
2024-12-23
Launch site
AFETR
Launch vehicle
Mass (kg)
RCS (m²)

Purposes: comms

External: N2YO · Heavens-Above · Gunter

§ Orbital elements

Epoch: 2026-09-21T18:34:20.364384Z

Period
91.67 min
Inclination
43.0007°
Eccentricity
0.0002988
Mean motion
15.70873890 rev/d
Perigee alt
354.4 km
Apogee alt
358.4 km
Semi-major
6,734.5 km
B*
9.7168e-4
RAAN
65.3608°
Arg perigee
291.1373°
Mean anomaly
68.9175°
Rev number
10,032

§ Raw data

STARLINK-11447 [DTC]1 62418U 24249K   26264.77384681  .00126338  00000+0  97168-3 0  99922 62418  43.0007  65.3608 0002988 291.1373  68.9175 15.70873890100328

JSON: /api/v1/satellites/62418 · /tle

For live sub-satellite position, see the globe view (requires WebGL).

§ Visibility from observer

Set your observer location to see the next 7 days of passes ≥ 10°. The values pass through the URL so the page stays shareable.

No JS? Fill the form by hand. The geolocation button needs JavaScript.